Retour au catalogue

LIZZIESAT-2

ActifCommunicationsVLEO
NORAD 62383·PAYLOAD·🇺🇸 United States

Lancé Dec 21, 2024 depuis Vandenberg Space Force Base

Loading…

Prochains Passages (prochaines 24 heures)

TLE

FraisSource: Space-Track

Époque: Sep 14, 2026, 03:34 UTC

1 62383U 24247G   26257.14906299  .00006735  00000-0  23034-3 0  9999
2 62383  44.9913 163.6692 0000878 352.7454   7.3417 15.31014751 96601

Suivez LIZZIESAT-2 en temps réel avec AllMySat

Download on the App Store